SWR259T LIRF-LSZH

Flight info

Callsign SWR259T
Flight time 1h 4m
Altitude 34000
Route SOVAN DCT AMTEL DCT PEPAG DCT CANNE Z651 DETRI/N0469F300 Z651 KELIP
Aircraft A320/M-SDE3FGHIRWY/LB1

Departure

Time 2026-05-04 18:18
Airport Rome–Fiumicino Leonardo da Vinci International Airport (LIRF)

Arrival

Time 2026-05-04 19:22
Airport Zürich Airport (LSZH)
Time Latitude Longitude Altitude Speed Heading
2026-05-04 17:57 41.79668 12.25821 16 ft 0 kts 115°
2026-05-04 18:10 41.79668 12.25820 15 ft 2 kts 115°
2026-05-04 18:10 41.79678 12.25790 17 ft 4 kts 115°
2026-05-04 18:10 41.79684 12.25760 15 ft 4 kts 67°
2026-05-04 18:10 41.79672 12.25741 16 ft 0 kts 25°
2026-05-04 18:11 41.79689 12.25751 15 ft 4 kts 25°
2026-05-04 18:11 41.79713 12.25767 14 ft 4 kts 25°
2026-05-04 18:11 41.79738 12.25782 14 ft 4 kts 25°
2026-05-04 18:11 41.79762 12.25797 14 ft 4 kts 25°
2026-05-04 18:12 41.79780 12.25809 14 ft 0 kts 25°
2026-05-04 18:14 41.79842 12.25832 14 ft 14 kts 354°
2026-05-04 18:14 41.79939 12.25864 15 ft 18 kts 25°
2026-05-04 18:14 41.80083 12.25952 15 ft 25 kts 25°
2026-05-04 18:15 41.80410 12.26155 16 ft 24 kts 24°
2026-05-04 18:15 41.80564 12.26367 17 ft 20 kts 69°
2026-05-04 18:15 41.80621 12.26575 15 ft 28 kts 70°
2026-05-04 18:16 41.80689 12.26822 14 ft 25 kts 69°
2026-05-04 18:16 41.80746 12.27019 13 ft 19 kts 56°
2026-05-04 18:16 41.80846 12.27023 13 ft 14 kts 340°
2026-05-04 18:17 41.80955 12.26914 13 ft 3 kts 250°
2026-05-04 18:17 41.80955 12.26913 13 ft 0 kts 250°
2026-05-04 18:17 41.80695 12.25973 18 ft 119 kts 250°
2026-05-04 18:18 41.80346 12.24709 31 ft 167 kts 247°
2026-05-04 18:18 41.79943 12.23219 627 ft 172 kts 247°
2026-05-04 18:18 41.79529 12.21722 1392 ft 170 kts 245°
2026-05-04 18:18 41.79179 12.20185 2005 ft 182 kts 262°
2026-05-04 18:19 41.80430 12.16880 2943 ft 216 kts 307°
2026-05-04 18:19 41.81379 12.15300 3583 ft 219 kts 306°
2026-05-04 18:19 41.82338 12.13691 4199 ft 222 kts 306°
2026-05-04 18:20 41.83303 12.12065 4842 ft 224 kts 306°
2026-05-04 18:20 41.84136 12.10310 5443 ft 223 kts 289°
2026-05-04 18:20 41.84506 12.08277 5835 ft 237 kts 272°
2026-05-04 18:20 41.84689 12.05962 6198 ft 262 kts 273°
2026-05-04 18:21 41.84894 12.03463 6807 ft 275 kts 273°
2026-05-04 18:21 41.85109 12.00898 7625 ft 278 kts 273°
2026-05-04 18:21 41.85330 11.98312 8499 ft 280 kts 274°
2026-05-04 18:21 41.85551 11.95703 9390 ft 282 kts 274°
2026-05-04 18:22 41.85773 11.93085 10247 ft 284 kts 275°
2026-05-04 18:22 41.86318 11.90438 10593 ft 309 kts 294°
2026-05-04 18:22 41.87647 11.88035 10802 ft 337 kts 316°
2026-05-04 18:22 41.89727 11.86373 10953 ft 364 kts 339°
2026-05-04 18:23 41.92316 11.85963 11100 ft 390 kts
2026-05-04 18:23 41.94951 11.87069 11547 ft 403 kts 24°
2026-05-04 18:23 41.97472 11.88752 12194 ft 407 kts 26°
2026-05-04 18:23 41.99977 11.90547 12851 ft 410 kts 27°
2026-05-04 18:24 42.02490 11.92408 13467 ft 414 kts 27°
2026-05-04 18:24 42.05022 11.94300 14058 ft 418 kts 27°
2026-05-04 18:24 42.07549 11.96171 14575 ft 422 kts 26°
2026-05-04 18:24 42.10135 11.98058 15108 ft 425 kts 26°
2026-05-04 18:25 42.12751 11.99946 15628 ft 428 kts 26°
2026-05-04 18:25 42.15470 12.01587 16130 ft 429 kts 17°
2026-05-04 18:25 42.18358 12.02579 16616 ft 429 kts
2026-05-04 18:25 42.21339 12.02912 17080 ft 430 kts 357°
2026-05-04 18:26 42.24316 12.02575 17561 ft 430 kts 348°
2026-05-04 18:26 42.27276 12.01903 18040 ft 433 kts 347°
2026-05-04 18:26 42.30260 12.01224 18513 ft 436 kts 347°
2026-05-04 18:26 42.33265 12.00544 18930 ft 439 kts 348°
2026-05-04 18:27 42.36285 11.99863 19352 ft 442 kts 348°
2026-05-04 18:27 42.39327 11.99178 19786 ft 444 kts 348°
2026-05-04 18:27 42.42377 11.98493 20196 ft 446 kts 348°
2026-05-04 18:27 42.45448 11.97804 20594 ft 448 kts 348°
2026-05-04 18:28 42.48488 11.97120 20983 ft 450 kts 348°
2026-05-04 18:28 42.51589 11.96418 21362 ft 453 kts 348°
2026-05-04 18:28 42.54705 11.95714 21735 ft 455 kts 348°
2026-05-04 18:28 42.57838 11.95006 22108 ft 457 kts 348°
2026-05-04 18:29 42.60981 11.94294 22481 ft 459 kts 348°
2026-05-04 18:29 42.64138 11.93576 22866 ft 461 kts 348°
2026-05-04 18:29 42.67304 11.92856 23228 ft 462 kts 348°
2026-05-04 18:29 42.70484 11.92133 23571 ft 464 kts 348°
2026-05-04 18:30 42.76885 11.90673 24150 ft 468 kts 348°
2026-05-04 18:30 42.80103 11.89933 24442 ft 469 kts 347°
2026-05-04 18:30 42.83255 11.88845 24745 ft 467 kts 339°
2026-05-04 18:31 42.86243 11.87152 25052 ft 464 kts 330°
2026-05-04 18:31 42.89080 11.85079 25463 ft 461 kts 329°
2026-05-04 18:31 42.91900 11.83012 25918 ft 459 kts 328°
2026-05-04 18:31 42.94704 11.80961 26378 ft 456 kts 328°
2026-05-04 18:32 42.97487 11.78925 26846 ft 453 kts 328°
2026-05-04 18:32 43.00257 11.76899 27326 ft 450 kts 327°
2026-05-04 18:32 43.03006 11.74886 27821 ft 447 kts 327°
2026-05-04 18:32 43.05737 11.72884 28293 ft 445 kts 327°
2026-05-04 18:33 43.08455 11.70883 28749 ft 442 kts 327°
2026-05-04 18:33 43.11122 11.68914 29215 ft 440 kts 327°
2026-05-04 18:33 43.13808 11.66931 29710 ft 438 kts 326°
2026-05-04 18:33 43.16483 11.64957 30147 ft 436 kts 326°
2026-05-04 18:34 43.19151 11.62990 30533 ft 435 kts 326°
2026-05-04 18:34 43.21805 11.61026 30913 ft 433 kts 325°
2026-05-04 18:34 43.24406 11.58979 31290 ft 429 kts 323°
2026-05-04 18:34 43.26947 11.56826 31610 ft 428 kts 322°
2026-05-04 18:35 43.29447 11.54613 31939 ft 427 kts 321°
2026-05-04 18:35 43.31929 11.52377 32294 ft 426 kts 321°
2026-05-04 18:35 43.34406 11.50148 32644 ft 425 kts 321°
2026-05-04 18:35 43.36882 11.47944 33007 ft 424 kts 321°
2026-05-04 18:36 43.39364 11.45761 33376 ft 423 kts 321°
2026-05-04 18:36 43.41844 11.43599 33753 ft 421 kts 321°
2026-05-04 18:36 43.44322 11.41443 34065 ft 421 kts 321°
2026-05-04 18:37 43.49296 11.37103 34123 ft 427 kts 321°
2026-05-04 18:37 43.54291 11.32721 34125 ft 429 kts 321°
2026-05-04 18:38 43.59326 11.28295 34120 ft 430 kts 321°
2026-05-04 18:38 43.64383 11.23848 34114 ft 431 kts 321°
2026-05-04 18:39 43.69437 11.19381 34124 ft 431 kts 321°
2026-05-04 18:39 43.74496 11.14898 34104 ft 432 kts 321°
2026-05-04 18:40 43.79562 11.10403 34102 ft 433 kts 321°
2026-05-04 18:40 43.84638 11.05900 34104 ft 434 kts 321°
2026-05-04 18:41 43.89719 11.01385 34126 ft 434 kts 321°
2026-05-04 18:41 43.94797 10.96850 34138 ft 434 kts 321°
2026-05-04 18:42 43.99850 10.92332 34145 ft 434 kts 321°
2026-05-04 18:42 44.04928 10.87782 34172 ft 434 kts 321°
2026-05-04 18:43 44.10010 10.83228 34199 ft 434 kts 321°
2026-05-04 18:43 44.15085 10.78663 34216 ft 435 kts 321°
2026-05-04 18:44 44.20168 10.74087 34216 ft 435 kts 321°
2026-05-04 18:44 44.25253 10.69498 34224 ft 436 kts 321°
2026-05-04 18:45 44.30334 10.64897 34208 ft 435 kts 321°
2026-05-04 18:45 44.35415 10.60293 34192 ft 435 kts 321°
2026-05-04 18:46 44.40458 10.55723 34193 ft 435 kts 321°
2026-05-04 18:46 44.45533 10.51104 34186 ft 435 kts 321°
2026-05-04 18:47 44.50606 10.46467 34181 ft 435 kts 321°
2026-05-04 18:47 44.55682 10.41830 34158 ft 436 kts 321°
2026-05-04 18:48 44.60770 10.37175 34135 ft 436 kts 321°
2026-05-04 18:48 44.65856 10.32496 34134 ft 436 kts 321°
2026-05-04 18:49 44.70898 10.27849 34050 ft 436 kts 321°
2026-05-04 18:49 44.75982 10.23163 34044 ft 438 kts 322°
2026-05-04 18:50 44.81082 10.18452 34025 ft 440 kts 322°
2026-05-04 18:50 44.85339 10.14512 34034 ft 441 kts 322°
2026-05-04 18:51 44.90472 10.09744 34036 ft 442 kts 322°
2026-05-04 18:51 44.95611 10.04960 34049 ft 443 kts 322°
2026-05-04 18:52 45.00763 10.00159 34053 ft 444 kts 322°
2026-05-04 18:52 45.05935 9.95334 34044 ft 445 kts 322°
2026-05-04 18:53 45.11107 9.90487 34033 ft 446 kts 322°
2026-05-04 18:53 45.16280 9.85627 34043 ft 446 kts 322°
2026-05-04 18:54 45.21427 9.80777 34027 ft 447 kts 322°
2026-05-04 18:54 45.26621 9.75895 34037 ft 448 kts 322°
2026-05-04 18:55 45.31818 9.71002 34071 ft 448 kts 322°
2026-05-04 18:55 45.39613 9.63620 34132 ft 449 kts 322°
2026-05-04 18:56 45.44812 9.58670 34159 ft 450 kts 322°
2026-05-04 18:56 45.50022 9.53715 34175 ft 450 kts 322°
2026-05-04 18:57 45.55233 9.48751 34163 ft 450 kts 322°
2026-05-04 18:57 45.57839 9.46269 33487 ft 449 kts 322°
2026-05-04 18:57 45.60446 9.43779 32510 ft 453 kts 323°
2026-05-04 18:58 45.63074 9.41262 31615 ft 456 kts 323°
2026-05-04 18:58 45.65700 9.38746 30905 ft 454 kts 323°
2026-05-04 18:58 45.68495 9.36640 30117 ft 456 kts 337°
2026-05-04 18:58 45.71501 9.35197 29328 ft 455 kts 339°
2026-05-04 18:59 45.74502 9.33792 28651 ft 452 kts 339°
2026-05-04 18:59 45.77482 9.32407 28003 ft 448 kts 339°
2026-05-04 18:59 45.80394 9.31057 27410 ft 444 kts 340°
2026-05-04 18:59 45.83315 9.29702 26827 ft 440 kts 340°
2026-05-04 19:00 45.86211 9.28355 26243 ft 436 kts 339°
2026-05-04 19:00 45.89080 9.27013 25664 ft 432 kts 339°
2026-05-04 19:00 45.91929 9.25678 25090 ft 429 kts 339°
2026-05-04 19:00 45.94756 9.24353 24523 ft 426 kts 339°
2026-05-04 19:01 45.97564 9.23037 23955 ft 422 kts 339°
2026-05-04 19:01 46.00349 9.21731 23368 ft 419 kts 339°
2026-05-04 19:01 46.03114 9.20436 22690 ft 417 kts 339°
2026-05-04 19:01 46.05862 9.19146 22135 ft 413 kts 339°
2026-05-04 19:02 46.08581 9.17868 21602 ft 410 kts 339°
2026-05-04 19:02 46.11280 9.16594 21091 ft 406 kts 339°
2026-05-04 19:02 46.13956 9.15329 20578 ft 404 kts 339°
2026-05-04 19:02 46.16615 9.14071 20167 ft 401 kts 339°
2026-05-04 19:03 46.19266 9.12816 20047 ft 400 kts 339°
2026-05-04 19:03 46.21918 9.11561 20092 ft 402 kts 339°
2026-05-04 19:03 46.24581 9.10300 20083 ft 402 kts 339°
2026-05-04 19:03 46.27233 9.09044 20079 ft 401 kts 339°
2026-05-04 19:04 46.29888 9.07786 20077 ft 401 kts 339°
2026-05-04 19:04 46.32539 9.06525 20087 ft 401 kts 339°
2026-05-04 19:04 46.35193 9.05259 20082 ft 401 kts 339°
2026-05-04 19:04 46.37837 9.04000 20084 ft 400 kts 339°
2026-05-04 19:05 46.40482 9.02741 20078 ft 401 kts 339°
2026-05-04 19:05 46.43137 9.01477 20096 ft 402 kts 339°
2026-05-04 19:05 46.45790 9.00210 20072 ft 401 kts 339°
2026-05-04 19:05 46.48444 8.98942 20088 ft 401 kts 339°
2026-05-04 19:06 46.51092 8.97675 20086 ft 401 kts 339°
2026-05-04 19:06 46.53707 8.96426 20074 ft 401 kts 339°
2026-05-04 19:06 46.56393 8.95139 20079 ft 402 kts 339°
2026-05-04 19:06 46.59002 8.93886 20072 ft 395 kts 339°
2026-05-04 19:07 46.61554 8.92663 20089 ft 378 kts 338°
2026-05-04 19:07 46.64001 8.91493 20068 ft 362 kts 338°
2026-05-04 19:07 46.66348 8.90372 19944 ft 351 kts 338°
2026-05-04 19:07 46.68579 8.89055 19635 ft 341 kts 323°
2026-05-04 19:08 46.70497 8.87094 19295 ft 335 kts 319°
2026-05-04 19:08 46.72365 8.85076 18932 ft 333 kts 319°
2026-05-04 19:08 46.74223 8.83072 18582 ft 331 kts 319°
2026-05-04 19:08 46.76068 8.81085 18224 ft 329 kts 319°
2026-05-04 19:09 46.77904 8.79109 17847 ft 327 kts 319°
2026-05-04 19:09 46.79735 8.77150 17484 ft 325 kts 319°
2026-05-04 19:09 46.81610 8.75309 17114 ft 327 kts 330°
2026-05-04 19:09 46.83822 8.74460 16795 ft 334 kts 354°
2026-05-04 19:10 46.86118 8.74932 16449 ft 336 kts 17°
2026-05-04 19:10 46.88273 8.76261 15930 ft 337 kts 23°
2026-05-04 19:10 46.90389 8.77712 15475 ft 335 kts 24°
2026-05-04 19:10 46.92489 8.79159 15038 ft 333 kts 24°
2026-05-04 19:11 46.94579 8.80608 14588 ft 331 kts 24°
2026-05-04 19:11 46.96654 8.82038 14184 ft 328 kts 24°
2026-05-04 19:11 46.98710 8.83449 13779 ft 325 kts 24°
2026-05-04 19:11 47.00726 8.84844 13315 ft 324 kts 24°
2026-05-04 19:12 47.02762 8.86235 12876 ft 321 kts 24°
2026-05-04 19:12 47.06794 8.88970 11970 ft 317 kts 24°
2026-05-04 19:12 47.08792 8.90322 11521 ft 315 kts 24°
2026-05-04 19:13 47.10771 8.91651 11068 ft 312 kts 24°
2026-05-04 19:13 47.12744 8.92956 10621 ft 309 kts 24°
2026-05-04 19:13 47.14704 8.94235 10165 ft 307 kts 24°
2026-05-04 19:13 47.16653 8.95486 9711 ft 304 kts 24°
2026-05-04 19:14 47.18615 8.96590 9184 ft 301 kts 12°
2026-05-04 19:14 47.20680 8.96744 8722 ft 296 kts 350°
2026-05-04 19:14 47.22653 8.95984 8206 ft 293 kts 342°
2026-05-04 19:14 47.24594 8.95124 7734 ft 290 kts 342°
2026-05-04 19:15 47.26515 8.94269 7270 ft 287 kts 342°
2026-05-04 19:15 47.28410 8.93425 7004 ft 279 kts 342°
2026-05-04 19:15 47.30214 8.92623 7003 ft 263 kts 342°
2026-05-04 19:15 47.31901 8.91872 6873 ft 253 kts 342°
2026-05-04 19:16 47.33578 8.91127 6586 ft 251 kts 342°
2026-05-04 19:16 47.35242 8.90385 6263 ft 249 kts 343°
2026-05-04 19:16 47.36897 8.89648 5947 ft 247 kts 343°
2026-05-04 19:16 47.38535 8.88919 5638 ft 245 kts 342°
2026-05-04 19:17 47.40166 8.88193 5316 ft 243 kts 342°
2026-05-04 19:17 47.41699 8.87216 5058 ft 237 kts 324°
2026-05-04 19:17 47.42874 8.85605 4993 ft 225 kts 306°
2026-05-04 19:17 47.43595 8.83657 5002 ft 209 kts 288°
2026-05-04 19:18 47.43882 8.81615 4938 ft 200 kts 275°
2026-05-04 19:18 47.44030 8.79583 4721 ft 198 kts 276°
2026-05-04 19:18 47.44175 8.77582 4456 ft 193 kts 276°
2026-05-04 19:18 47.44319 8.75622 4160 ft 190 kts 276°
2026-05-04 19:19 47.44458 8.73706 3880 ft 186 kts 276°
2026-05-04 19:19 47.44595 8.71828 3606 ft 182 kts 276°
2026-05-04 19:19 47.44727 8.70013 3380 ft 171 kts 276°
2026-05-04 19:19 47.44849 8.68319 3115 ft 160 kts 276°
2026-05-04 19:20 47.44963 8.66743 2902 ft 148 kts 276°
2026-05-04 19:20 47.45068 8.65293 2686 ft 141 kts 276°
2026-05-04 19:20 47.45171 8.63866 2477 ft 139 kts 276°
2026-05-04 19:20 47.45272 8.62454 2259 ft 138 kts 275°
2026-05-04 19:21 47.45373 8.61052 2049 ft 137 kts 275°
2026-05-04 19:21 47.45473 8.59655 1845 ft 136 kts 274°
2026-05-04 19:21 47.45572 8.58265 1641 ft 136 kts 275°
2026-05-04 19:21 47.45672 8.56877 1444 ft 135 kts 274°
2026-05-04 19:22 47.45761 8.55609 1404 ft 106 kts 276°
2026-05-04 19:22 47.45820 8.54786 1386 ft 49 kts 276°
2026-05-04 19:22 47.45788 8.54375 1386 ft 29 kts 246°
2026-05-04 19:22 47.45687 8.54201 1384 ft 20 kts 185°
2026-05-04 19:23 47.45602 8.54331 1384 ft 18 kts 109°
2026-05-04 19:23 47.45564 8.54497 1389 ft 15 kts 108°
2026-05-04 19:23 47.45528 8.54662 1387 ft 20 kts 108°
2026-05-04 19:23 47.45484 8.54859 1395 ft 20 kts 110°
2026-05-04 19:24 47.45439 8.55045 1399 ft 18 kts 109°
2026-05-04 19:24 47.45396 8.55228 1401 ft 21 kts 109°
2026-05-04 19:24 47.45332 8.55404 1407 ft 18 kts 130°
2026-05-04 19:24 47.45219 8.55494 1411 ft 19 kts 155°
2026-05-04 19:25 47.45091 8.55582 1405 ft 21 kts 155°
2026-05-04 19:25 47.44967 8.55681 1404 ft 18 kts 123°
2026-05-04 19:25 47.44949 8.55843 1401 ft 14 kts 96°
2026-05-04 19:25 47.44913 8.55954 1405 ft 13 kts 151°
2026-05-04 19:26 47.44834 8.56007 1404 ft 12 kts 155°
2026-05-04 19:26 47.44752 8.56064 1402 ft 11 kts 155°
2026-05-04 19:26 47.44719 8.56043 1402 ft 6 kts 236°
2026-05-04 19:26 47.44699 8.55981 1398 ft 5 kts 245°
2026-05-04 19:27 47.44698 8.55975 1397 ft 0 kts 245°